Regional Weather Roundup
Issued by NWS

Home | Current Version | Previous Version | Graphics & Text | Print | Product List | Glossary On
Versions: 1 2 3 4 5 6 7 8 9 10 11 12 13 14 15 16 17 18 19 20 21 22 23 24 25 26 27 28 29 30 31 32 33 34 35 36 37 38 39 40 41 42 43 44 45 46 47 48 49 50
000
ASUS43 KLOT 230508
RWRIL

ILLINOIS REGIONAL WEATHER ROUNDUP
NATIONAL WEATHER SERVICE CHICAGO/ROMEOVILLE IL
1100 PM CST WED FEB 22 2017

NOTE: "FAIR" INDICATES FEW OR NO CLOUDS BELOW 12,000 FEET WITH NO
SIGNIFICANT WEATHER AND/OR OBSTRUCTIONS TO VISIBILITY.

* THESE STATIONS ARE NOT UNDER NWS QUALITY CONTROL. THEY ALSO MAY NOT
  REPORT WEATHER SUCH AS PRECIPITATION OR FOG.

ILZ001-002-007-009-015-016-024-230600-
NORTHWEST ILLINOIS

CITY           SKY/WX    TMP DP  RH WIND       PRES   REMARKS
MOLINE         CLEAR    N/A N/A N/A W5        29.67R
STERLING*      CLEAR     50  48  93 W8        29.66R
SAVANNA*       CLEAR     54  45  71 W5        29.66R
$$

ILZ003-004-008-010-011-017-018-230600-
NORTH CENTRAL ILLINOIS

CITY           SKY/WX    TMP DP  RH WIND       PRES   REMARKS
ROCKFORD       CLEAR     57  50  77 W15       29.64R
FREEPORT*      CLEAR     50  46  84 W7        29.65R
ROCHELLE*      CLEAR     53  51  93 W14       29.64R
DE KALB*       CLEAR     55  52  92 SW14      29.63S
PERU*          CLEAR     56  52  86 SW12      29.66R
$$

ILZ005-006-012>014-019>023-230600-
NORTHEAST ILLINOIS

CITY           SKY/WX    TMP DP  RH WIND       PRES   REMARKS
CHICAGO-OHARE  CLEAR     59  52  77 SW10G21   29.61S
CHICAGO-MIDWAY CLEAR     60  53  77 SW16G24   29.62S
AURORA         CLEAR     57  51  80 SW13      29.63S
LANSING*       CLEAR     56  55  94 SW13      29.65S
JOLIET*        CLEAR     59  56  88 SW8       29.64F
WAUKEGAN       CLEAR     58  52  80 SW9G24    29.58S
DUPAGE AIRPORT CLEAR     57  51  80 SW16      29.61F
KANKAKEE*      CLEAR     55  53  92 S12       29.67S
WHEELING       CLEAR     59  51  75 SW14G21   29.61F
MORRIS*        CLEAR     58  53  85 SW13      29.64S
ROMEOVILLE*    CLEAR     57  56  95 SW10      29.64S
NORTHERLY ISL    N/A     60  52  74 SW6         N/A
$$

LMZ740>746-230600-
SOUTHERN LAKE MICHIGAN

STATION/POSITION SKY/WX   TEMP    WIND        PRES    VSBY  WAVE
                          AIR SEA DIR/SP/G                  HT/PER
                          (F)     (DEG/KT/KT) (MB)    (MI)  (FT/S)
HARRISON CRIB              61     220/ 20/ 24   N/A
BURNHAM HARBOR             60     230/  7/ 13   N/A
CALUMET HARBOR             58     200/ 10/ 13 1002.9S
BURNS HARBOR               58     200/ 20/ 24 1003.7F
MICHIGAN CITY              59     170/ 16/ 18   N/A
$$

ILZ025>027-034>036-040-047-049-050-058-095>099-230600-
WEST-CENTRAL ILLINOIS

CITY           SKY/WX    TMP DP  RH WIND       PRES   REMARKS
QUINCY         CLEAR     55  52  89 W10       29.70R
GALESBURG*     CLEAR     54  50  88 SW6       29.69R
MACOMB*        CLEAR     51  49  95 SW7       29.72S
JACKSONVILLE*  CLEAR     54  52  93 S5        29.69S
PITTSFIELD*    CLOUDY    55  54  97 S3        29.71R
$$

ILZ028>032-037-038-041>044-048-051>054-059>061-230600-
CENTRAL ILLINOIS

CITY           SKY/WX    TMP DP  RH WIND       PRES   REMARKS
PONTIAC        CLEAR     56  55  98 SW7       29.68S FOG
BLOOMINGTON    PTCLDY    56  54  93 SW12      29.69F
DECATUR        CLEAR     58  52  80 SW12      29.71S
PEORIA         CLEAR     50  50 100 SW7       29.69R FOG
LACON*         PTCLDY    55  53  94 SW6       29.67R
LINCOLN*       FOG       53  53 100 CALM      29.69S VSB 1
SPRINGFIELD    FOG       54  53  97 S5        29.71S VSB 3/4
TAYLORVILLE    CLEAR     57  54  88 S12       29.72S
$$

ILZ033-039-045-046-055>057-062-063-230600-
EAST-CENTRAL ILLINOIS

CITY           SKY/WX    TMP DP  RH WIND       PRES   REMARKS
CHAMPAIGN      CLEAR     55  51  86 S10       29.71S
RANTOUL*       CLEAR     60  55  82 SW12      29.70S
MATTOON        CLEAR     59  54  83 S7        29.72S
PARIS*         CLEAR     58  54  88 SW13      29.74S
$$

ILZ079-100>102-230600-
SOUTHWEST ILLINOIS

CITY           SKY/WX    TMP DP  RH WIND       PRES   REMARKS
ALTON          PTCLDY    60  53  77 SW9       29.73R
BELLEVILLE     PTCLDY    57  57  99 CALM      29.73R
CAHOKIA*       PTCLDY    62  53  72 SW8       29.73R
SPARTA*        CLOUDY    60  55  84 S6        29.76R
$$

ILZ064>066-069>071-074>076-080>082-084>086-088>090-092>094-230600-
SOUTH-CENTRAL ILLINOIS

CITY           SKY/WX    TMP DP  RH WIND       PRES   REMARKS
CARBONDALE     MOCLDY    59  57  93 S8        29.77R
CAIRO*         PTCLDY    57  56  97 S5        29.79R
EFFINGHAM*     CLEAR     59  55  87 S5        29.75S
MARION         MOCLDY    61  61 100 SW6       29.78R
MT. VERNON     PTCLDY    58  55  90 S8        29.75F
CENTRALIA*     PTCLDY    60  56  88 S10       29.74R
SALEM*         PTCLDY    62  55  79 S10       29.74F
METROPOLIS*    PTCLDY    61  56  83 CALM      29.79F
$$

ILZ067-068-072-073-078-083-087-091-230600-
SOUTHEAST ILLINOIS

CITY           SKY/WX    TMP DP  RH WIND       PRES   REMARKS
LAWRENCEVILLE  CLEAR     53  51  93 S9        29.75F
FLORA*         PTCLDY    57  54  88 S7        29.75S
FAIRFIELD*     PTCLDY    56  54  91 S5        29.75F
HARRISBURG*    PTCLDY    58  55  91 SW5       29.78R
ROBINSON*      CLEAR     55  52  90 S6        29.76S
CARMI*         MOCLDY    54  53  97 S3        29.77R
$$

ABBREVIATIONS USED IN REMARKS
   TC - TEMPERATURE IN CELSIUS
  WCI - WIND CHILL INDEX
   HX - HEAT INDEX
  VSB - VISIBILITY
$$





USA.gov is the U.S. government's official web portal to all federal, state and local government web resources and services.